Regional Weather Roundup
Issued by NWS

Home | Current Version | Previous Version | Text Only | Print | Product List | Glossary On
Versions: 1 2 3 4 5 6 7 8 9 10 11 12 13 14 15 16 17 18 19 20 21 22 23 24 25 26 27 28 29 30 31 32 33 34 35 36 37 38 39 40 41 42 43 44 45 46 47 48 49 50
000
ASUS45 KABQ 280510
RWRNM
NEW MEXICO REGIONAL WEATHER ROUNDUP
NATIONAL WEATHER SERVICE ALBUQUERQUE NM
1100 PM MDT THU AUG 27 2015

NOTE: "FAIR" MEANS FEW OR NO CLOUDS BELOW 12,000 FEET AGL WITH NO
       SIGNIFICANT WEATHER OR OBSTRUCTIONS TO VISION.

      THIS PRODUCT IS RELEASED AS TWO VERSIONS.  ONE VERSION NEAR
      THE TOP OF THE HOUR CONTAINING PRELIMINARY DATA FROM ALBUQUERQUE
      AND OTHER STATIONS.  A FINAL VERSION WITH ADDITIONAL DATA IS
      ISSUED ABOUT 10 MINUTES AFTER THE HOUR.

NMZ501-503-504-510>518-280600-
NORTHWEST PLATEAU/NORTHCENTRAL MOUNTAINS

CITY           SKY/WX    TMP DP  RH WIND       PRES   REMARKS
FARMINGTON     CLEAR     71  50  47 NW6       30.20S
LOS ALAMOS     MOCLDY    68  48  48 CALM      30.33S
SANTA FE       MOCLDY    67  50  54 N8        30.25S
TAOS           PTCLDY    57  43  58 E8        30.34R
ANGEL FIRE     MOCLDY    49  48  97 CALM      30.42S

$$
NMZ402-403-502-505>509-280600-
WESTCENTRAL MOUNTAINS/SOUTHWEST MOUNTAINS

CITY           SKY/WX    TMP DP  RH WIND       PRES   REMARKS
GALLUP         PTCLDY    63  57  81 S3        30.31F
GRANTS         MOCLDY    61  57  87 SE6       30.32F
SILVER CITY      N/A     70  55  60 NW13      30.24S

$$
NMZ407-409-411-412-280600-
SOUTHERN DESERTS

CITY           SKY/WX    TMP DP  RH WIND       PRES   REMARKS
LORDSBURG      FAIR      72  52  49 W6        30.15F
DEMING         MOCLDY    77  54  44 NW7       30.13S
LAS CRUCES     MOCLDY    77  52  41 E3        30.15S
HOLLOMAN AFB   MOCLDY    77  57  50 N5        30.10R
ALAMOGORDO     MOCLDY    79  54  41 N8        30.12R
T OR C         CLOUDY    77  56  48 NW8       30.17R

$$
NMZ519>523-280600-
CENTRAL VALLEYS/CENTRAL HIGHLANDS

CITY           SKY/WX    TMP DP  RH WIND       PRES   REMARKS
ALBUQUERQUE    MOCLDY    72  54  53 SE7       30.21R
DOUBLE EAGLE   MOCLDY    64  54  70 SW8       30.25S
MORIARTY ARPT  FAIR      63  53  71 W6        30.26S
CLINES CORNERS MOCLDY    60  52  74 W10       30.30S
BELEN          FAIR      69  57  66 W7        30.20S
SOCORRO        FAIR      70  58  67 CALM      30.17F

$$
NMZ524>526-539-540-280600-
SOUTHCENTRAL MOUNTAINS

CITY           SKY/WX    TMP DP  RH WIND       PRES   REMARKS
RUIDOSO        MOCLDY    61  54  77 MISG      30.35S

$$
NMZ527>531-280600-
NORTHEAST HIGHLANDS/NORTHEAST PLAINS

CITY           SKY/WX    TMP DP  RH WIND       PRES   REMARKS
LAS VEGAS      MOCLDY    63  46  54 NE3       30.26S
RATON          PTCLDY    66  53  63 N18G25    30.25R
CLAYTON        MOCLDY    66  63  90 N5        30.13S

$$
NMZ532>537-280600-
EASTCENTRAL PLAINS

CITY           SKY/WX    TMP DP  RH WIND       PRES   REMARKS
TUCUMCARI      MOCLDY    73  55  53 SW8       30.03F
CANNON AFB     PTCLDY    70  60  70 S7        30.09F
CLOVIS AIRPORT MOCLDY    68  55  64 SW7       30.10F

$$
NMZ028-029-538-280600-
SOUTHEAST PLAINS

CITY           SKY/WX    TMP DP  RH WIND       PRES   REMARKS
ROSWELL        PTCLDY    75  56  51 S3        30.06F
ARTESIA        MOCLDY    81  57  44 CALM      30.07S
CARLSBAD       NOT AVBL


$$



USA.gov is the U.S. government's official web portal to all federal, state and local government web resources and services.